Location: Dulzura
(32.6442°N, 116.7814°W)
Time: 20:39:22
(UTC+00:00)

Lacrosse 5 - Pass Details

Date: 07 December 2021
Orbit: 714 x 724 km, 57.0° (Epoch: 28 August)

Event Time Altitude Azimuth Distance (km) Brightness Sun altitude
Rises 13:58:28 0° 215° (SW) 3,110 5.0 -8.1°
Reaches altitude 10° 14:00:50 10° 214° (SW) 2,194 4.3 -7.6°
Maximum altitude 14:05:53 83° 128° (SE) 730 2.0 -6.7°
Drops below altitude 10° 14:10:59 10° 40° (NE) 2,212 4.6 -5.7°
Sets 14:13:23 0° 40° (NE) 3,136 5.4 -5.2°
